Location: ?????????
(54.7630°N, 39.4991°E)
Time: 20:51:53
(UTC+00:00)

Cosmos 372 Rocket - Pass Details

Date: 14 April 2026
Orbit: 733 x 762 km, 74.1° (Epoch: 11 May)

Event Time Altitude Azimuth Distance (km) Brightness Sun altitude
Rises 17:02:40 0° 214° (SSW) 3,214 7.3 -6.0°
Reaches altitude 10° 17:05:03 10° 216° (SW) 2,294 6.6 -6.3°
Maximum altitude 17:10:14 69° 300° (WNW) 821 4.5 -7.0°
Drops below altitude 10° 17:15:28 10° 24° (NNE) 2,307 6.6 -7.7°
Sets 17:17:52 0° 27° (NNE) 3,235 7.3 -8.0°
